#timestamp,LO_Frequency,Hit,StdDev 
1511143215.2,286046991.9,N
1511143235.9,286046991.6,N
1511143255.7,286046994.8,N
1511143275.5,286046993.3,N
1511143295.4,286046997.4,N
1511143315.2,286046992.9,N
1511143335.0,286046997.5,N
1511143335.9,286046997.5,N
1511143355.8,286047001.7,N
1511143375.6,286046997.9,N
1511143395.4,286046995.2,N
1511143415.3,286046996.2,N
1511143435.1,286046996.6,N
1511143436.0,286046996.6,N
1511143455.8,286046994.1,N
1511143475.7,286046997.3,N
1511143495.5,286047000.9,N
1511143515.3,286046996.8,N
1511143535.2,286047001.3,N
1511143555.9,286047004.4,N
1511143575.7,286047006.7,N
1511143595.5,286047004.6,N
1511143615.4,286047008.7,N
1511143635.2,286047006.1,N
1511143655.0,286047006.0,N
1511143655.9,286047006.0,N
1511143675.8,286046999.2,N
1511143695.6,286047001.1,N
1511143715.4,286047000.0,N
1511143735.3,286047001.7,N
1511143755.1,286047007.5,N
1511143756.0,286047007.5,N
1511143775.8,286047003.1,N
1511143795.7,286047009.1,N
1511143815.5,286047010.3,N
1511143835.3,286047008.3,N
1511143855.2,286047013.2,N
1511143875.9,286047020.2,Y
1511143895.7,286047020.3,P
1511143915.6,286047016.4,N
1511143935.4,286047021.3,N
1511143955.2,286047015.9,N
1511143975.0,286047012.2,N
1511143976.0,286047012.2,N
1511143995.8,286047005.1,N
1511144015.6,286047004.9,N
1511144035.4,286047009.6,N
1511144055.3,286047005.9,N
1511144075.1,286047008.3,N
1511144095.8,286047008.1,N
1511144115.7,286047004.2,N
1511144135.5,286047001.5,N
1511144155.3,286047007.3,N
1511144175.2,286047005.2,N
1511144195.9,286047002.3,N
1511144215.7,286047004.9,N
1511144235.5,286046999.9,N
1511144255.4,286046994.7,N
1511144275.2,286046996.3,N
1511144295.0,286046998.7,N
1511144295.9,286046998.7,N
1511144315.8,286047002.8,N
1511144335.6,286046999.9,N
1511144355.4,286047000.5,N
1511144375.3,286046995.6,N
1511144395.1,286046988.7,N
1511144415.8,286046989.1,N
1511144435.7,286046992.4,N
1511144455.5,286046996.2,N
1511144475.3,286046996.2,N
1511144495.2,286046995.5,N
1511144515.9,286046998.1,N
1511144535.7,286046996.6,N
1511144555.6,286046995.8,N
1511144575.4,286046993.3,N
1511144595.2,286046992.9,N
1511144615.0,286046991.1,N
1511144615.9,286046991.1,N
1511144635.8,286046985.3,N
1511144655.6,286046988.5,N
1511144675.5,286046983.7,Y
1511144695.3,286046983.8,P
1511144715.1,286046988.9,N
1511144735.8,286046987.8,N
1511144755.7,286046985.9,Y
1511144775.5,286046996.9,P
1511144795.3,286046994.5,N
1511144815.2,286046996.0,N
1511144835.0,286046991.7,N
1511144835.9,286046991.7,N
1511144855.8,286046990.6,Y
1511144875.6,286046999.8,P
1511144895.4,286046999.3,N
1511144915.2,286046993.1,N
1511144935.1,286046995.2,N
1511144936.0,286046995.2,N
1511144955.8,286046997.8,N
1511144975.6,286046996.0,N
1511144995.5,286046993.7,N
1511145015.3,286046997.2,N
1511145035.1,286046995.7,N
1511145055.9,286046992.7,Y
1511145075.7,286046997.8,P
1511145095.5,286046998.1,N
1511145115.4,286046995.5,P
1511145135.2,286047002.7,N
1511145155.0,286047001.4,N
1511145155.9,286047001.4,N
1511145175.8,286046997.4,N
1511145195.6,286046995.0,N
1511145215.4,286046993.4,N
1511145235.3,286046996.2,N
1511145255.1,286047001.9,N
1511145256.0,286047001.9,N
1511145275.8,286046999.8,N
1511145295.6,286046999.6,N
1511145315.5,286047002.4,N
1511145335.3,286047004.3,N
1511145355.1,286047004.4,N
1511145375.9,286047003.1,N
1511145395.7,286047001.7,N
1511145415.5,286047002.3,N
1511145435.4,286047000.5,N
1511145455.2,286046995.2,N
1511145475.0,286046993.8,N
1511145475.9,286046993.8,N
1511145495.8,286046998.6,N
1511145515.6,286047002.0,N
1511145535.4,286047000.5,N
1511145555.3,286047001.9,N
1511145575.1,286047000.5,N
1511145576.0,286047000.5,N
1511145595.8,286046999.9,N
1511145615.6,286046996.6,N
1511145635.5,286046997.5,N
1511145655.3,286047000.0,N
1511145675.1,286047002.0,N
1511145695.9,286047005.6,N
1511145715.7,286047007.4,N
1511145735.5,286047010.8,Y
1511145755.4,286047000.1,P
1511145775.2,286046999.6,P
1511145795.0,286046996.6,P
1511145795.9,286046996.6,N
1511145815.8,286046992.1,Y
1511145835.6,286046994.0,P
1511145855.4,286046990.6,P
1511145875.3,286046993.8,N
1511145895.1,286047000.3,N
1511145915.8,286046998.5,N
1511145935.7,286047008.4,N
1511145955.5,286047002.5,N
1511145975.3,286046998.1,N
1511145995.2,286046995.8,N
1511146015.9,286046995.4,N
1511146035.7,286046993.8,N
1511146055.6,286046991.2,N
1511146075.4,286046990.4,N
1511146095.2,286046996.3,N
1511146115.0,286046998.9,N
1511146116.0,286046998.9,N
1511146135.8,286047002.8,N
1511146155.6,286047002.6,N
1511146175.4,286047002.4,N
1511146195.3,286046998.2,N
1511146215.1,286047005.5,N
1511146235.8,286047005.9,N
1511146255.7,286047009.0,N
1511146275.5,286047010.8,N
1511146295.3,286047006.5,N
1511146315.2,286047013.1,N
1511146335.9,286047017.3,N
1511146355.7,286047026.9,Y
1511146375.6,286047025.0,P
1511146395.4,286047025.6,N
1511146415.2,286047029.8,N
1511146435.1,286047042.1,Y
1511146436.0,286047042.1,P
1511146455.8,286047027.2,N
1511146475.6,286047025.1,N
1511146495.5,286047023.7,N
1511146515.3,286047025.1,Y
1511146535.1,286046999.6,P
1511146555.9,286046997.3,N
1511146575.7,286046993.0,N
1511146595.5,286046990.1,N
1511146615.4,286046991.0,N
1511146635.2,286046992.8,N
1511146655.0,286046995.8,N
1511146655.9,286046995.8,N
1511146675.7,286046991.9,N
1511146695.6,286047001.2,N
1511146715.4,286047009.0,N
1511146735.2,286047011.3,N
1511146755.1,286047018.4,N
1511146756.0,286047018.4,N
1511146775.8,286047010.2,N
1511146795.6,286047013.7,N
